Radiation Dose measured at exhaust stack monitor of Fukushima Daiichi Nuclear Power Station
Date,Time,Unit 5 6 shared exhaust cylinders,Wind Direction,Wind Velocity(m/s)
2021/12/25,00:00,4.1,south,3.7
2021/12/25,00:10,4.1,southwest,1.9
2021/12/25,00:20,4.2,south-southeast,1.2
2021/12/25,00:30,4.1,-,CALM
2021/12/25,00:40,4.0,west-southwest,2.0
2021/12/25,00:50,4.0,south,5.5
2021/12/25,01:00,4.1,south-southeast,4.8
2021/12/25,01:10,4.0,southeast,4.2
2021/12/25,01:20,4.0,south,2.9
2021/12/25,01:30,3.9,south-southeast,4.0
2021/12/25,01:40,4.0,south-southeast,4.1
2021/12/25,01:50,4.0,southeast,2.8
2021/12/25,02:00,4.0,south-southeast,2.8
2021/12/25,02:10,3.9,south-southwest,2.0
2021/12/25,02:20,4.1,west-southwest,2.6
2021/12/25,02:30,3.9,west-southwest,3.7
2021/12/25,02:40,3.9,west-southwest,3.5
2021/12/25,02:50,3.9,west-southwest,1.1
2021/12/25,03:00,4.0,northwest,2.2
2021/12/25,03:10,3.9,west-northwest,2.3
2021/12/25,03:20,4.1,northwest,2.0
2021/12/25,03:30,4.0,northwest,2.5
2021/12/25,03:40,4.1,north-northwest,3.6
2021/12/25,03:50,4.0,north-northwest,4.5
2021/12/25,04:00,4.2,northwest,5.3
2021/12/25,04:10,4.0,northwest,4.8
2021/12/25,04:20,3.9,north-northwest,4.4
2021/12/25,04:30,4.0,north,5.6
2021/12/25,04:40,4.2,north,6.2
2021/12/25,04:50,4.1,north,5.8
2021/12/25,05:00,4.2,north,6.0
2021/12/25,05:10,4.1,north,5.6
2021/12/25,05:20,3.9,north-northwest,6.3
2021/12/25,05:30,4.0,north-northwest,6.2
2021/12/25,05:40,3.9,north-northwest,6.4
2021/12/25,05:50,4.0,north-northwest,6.7
2021/12/25,06:00,4.0,north-northwest,7.6
2021/12/25,06:10,4.1,north-northwest,6.7
2021/12/25,06:20,3.9,north-northwest,6.8
2021/12/25,06:30,4.0,north-northwest,5.7
2021/12/25,06:40,4.1,north-northwest,6.0
2021/12/25,06:50,4.0,north-northwest,6.1
2021/12/25,07:00,3.9,northwest,6.4
2021/12/25,07:10,4.1,north-northwest,6.9
2021/12/25,07:20,4.1,north-northwest,7.1
2021/12/25,07:30,3.9,north-northwest,6.5
2021/12/25,07:40,4.0,northwest,6.0
2021/12/25,07:50,3.8,northwest,6.1
2021/12/25,08:00,4.0,northwest,5.3
2021/12/25,08:10,4.1,northwest,6.5
2021/12/25,08:20,4.0,northwest,7.0
2021/12/25,08:30,4.1,north-northwest,5.2
2021/12/25,08:40,4.1,north-northwest,6.6
2021/12/25,08:50,4.1,north-northwest,5.8
2021/12/25,09:00,4.0,north-northwest,6.6
2021/12/25,09:10,4.0,north-northwest,6.1
2021/12/25,09:20,3.9,north-northwest,7.3
2021/12/25,09:30,4.1,north-northwest,8.1
2021/12/25,09:40,4.0,north-northwest,7.3
2021/12/25,09:50,3.9,north-northwest,8.9
2021/12/25,10:00,4.1,north-northwest,9.1
2021/12/25,10:10,4.0,north-northwest,8.7
2021/12/25,10:20,4.0,north,8.7
2021/12/25,10:30,3.9,north-northwest,10.2
2021/12/25,10:40,4.2,north-northwest,8.3
2021/12/25,10:50,4.2,north-northwest,10.7
2021/12/25,11:00,4.1,north-northwest,10.2
2021/12/25,11:10,4.1,north-northwest,7.0
2021/12/25,11:20,4.1,north-northwest,7.6
2021/12/25,11:30,4.1,north-northwest,6.5
2021/12/25,11:40,4.0,north-northwest,7.4
2021/12/25,11:50,4.2,north-northwest,8.5
2021/12/25,12:00,4.0,north-northwest,7.3
2021/12/25,12:10,4.1,north,6.8
2021/12/25,12:20,4.2,north,6.7
2021/12/25,12:30,4.0,north,7.1
2021/12/25,12:40,4.0,north,5.5
2021/12/25,12:50,4.1,north,6.6
2021/12/25,13:00,4.0,north-northwest,7.1
2021/12/25,13:10,4.0,north,6.9
2021/12/25,13:20,4.0,north,7.9
2021/12/25,13:30,4.2,north,8.5
2021/12/25,13:40,4.0,north-northwest,9.7
2021/12/25,13:50,4.1,north,10.0
2021/12/25,14:00,3.9,north,9.1
2021/12/25,14:10,4.1,north,8.1
2021/12/25,14:20,3.9,north,8.4
2021/12/25,14:30,4.1,north,7.3
2021/12/25,14:40,4.0,north,7.7
2021/12/25,14:50,4.0,north,7.8
2021/12/25,15:00,4.0,north,9.0
2021/12/25,15:10,4.1,north-northwest,8.6
2021/12/25,15:20,3.9,north-northwest,8.6
2021/12/25,15:30,4.0,north-northwest,7.3
2021/12/25,15:40,3.9,north-northwest,6.6
2021/12/25,15:50,4.0,north-northwest,7.1
2021/12/25,16:00,4.0,north-northwest,5.7
2021/12/25,16:10,4.1,north-northwest,4.5
2021/12/25,16:20,3.9,north-northwest,4.8
2021/12/25,16:30,4.1,north-northwest,7.7
2021/12/25,16:40,4.1,north-northwest,6.7
2021/12/25,16:50,4.0,north-northwest,7.9
2021/12/25,17:00,3.9,north-northwest,5.8
2021/12/25,17:10,3.9,north-northwest,6.3
2021/12/25,17:20,4.0,north-northwest,6.8
2021/12/25,17:30,3.9,north-northwest,6.6
2021/12/25,17:40,4.2,north-northwest,5.8
2021/12/25,17:50,3.9,north,5.5
2021/12/25,18:00,3.9,north,5.3
2021/12/25,18:10,3.9,north,4.1
2021/12/25,18:20,3.9,north,4.6
2021/12/25,18:30,4.0,north-northwest,7.4
2021/12/25,18:40,4.1,north-northwest,6.7
2021/12/25,18:50,4.1,north-northwest,6.3
2021/12/25,19:00,4.0,north-northwest,6.5
2021/12/25,19:10,4.0,north-northwest,7.2
2021/12/25,19:20,4.1,north-northwest,5.3
2021/12/25,19:30,4.1,north-northwest,6.8
2021/12/25,19:40,3.9,north-northwest,6.2
2021/12/25,19:50,4.0,north-northwest,5.8
2021/12/25,20:00,4.1,north-northwest,8.6
2021/12/25,20:10,3.9,northwest,7.6
2021/12/25,20:20,4.1,northwest,9.0
2021/12/25,20:30,3.9,northwest,11.8
2021/12/25,20:40,4.0,northwest,7.7
2021/12/25,20:50,4.2,northwest,8.6
2021/12/25,21:00,4.0,northwest,9.1
2021/12/25,21:10,4.3,northwest,9.3
2021/12/25,21:20,4.0,northwest,10.7
2021/12/25,21:30,3.9,northwest,7.6
2021/12/25,21:40,4.0,northwest,10.3
2021/12/25,21:50,4.3,northwest,7.4
2021/12/25,22:00,4.1,northwest,8.0
2021/12/25,22:10,3.9,northwest,9.6
2021/12/25,22:20,4.0,west-northwest,8.3
2021/12/25,22:30,4.0,northwest,9.5
2021/12/25,22:40,4.1,northwest,8.6
2021/12/25,22:50,4.1,northwest,10.7
2021/12/25,23:00,3.9,northwest,11.1
2021/12/25,23:10,3.9,northwest,7.7
2021/12/25,23:20,4.0,northwest,8.2
2021/12/25,23:30,3.9,northwest,7.6
2021/12/25,23:40,3.9,northwest,5.8
2021/12/25,23:50,4.2,west-northwest,8.2
